Weather Roundup
Issued by NWS Corpus Christi, TX

Home | Current Version | Previous Version | Text Only | Print | Product List | Glossary On
Versions: 1 2 3 4 5 6 7 8 9 10 11 12 13 14 15 16 17 18 19 20 21 22 23 24 25 26 27 28 29 30 31 32 33 34 35 36 37 38 39 40 41 42 43 44 45 46 47 48 49 50
000
ASUS44 KCRP 251110
HRRCRP

SOUTH TEXAS REGIONAL WEATHER ROUNDUP
NATIONAL WEATHER SERVICE CORPUS CHRISTI TX
500 AM CST SAT FEB 25 2017


TXZ229>244-251200-
...CORPUS CHRISTI AREA OBSERVATIONS...

CITY           SKY/WX    TMP DP  RH WIND       PRES   REMARKS
CORPUS CHRISTI CLEAR     56  41  57 NE16      30.01R
NAS CORPUS CHR CLEAR     58  51  78 NE21      29.99R
ROCKPORT       PTCLDY    54  42  64 N12       30.02R
KINGSVILLE NAS CLEAR     55  42  61 N13       30.01R
ALICE          CLEAR     53  38  56 NE12      30.02R
ORANGE GROVE   CLEAR     53  40  61 NE12      30.03R
FALFURRIAS     CLEAR     51  41  67 N8        30.00R
$$

...VICTORIA AREA OBSERVATIONS...

CITY           SKY/WX    TMP DP  RH WIND       PRES   REMARKS
VICTORIA       CLEAR     51  39  63 N13       30.03R
BEEVILLE       FAIR      52  39  61 NE12      30.03R
PLEASANTON     CLEAR     50  33  52 NE8       30.06R
SAN ANTONIO    CLEAR     49  31  49 N10       30.07R
$$

...LAREDO AREA OBSERVATIONS...

CITY           SKY/WX    TMP DP  RH WIND       PRES   REMARKS
LAREDO         CLEAR     55  38  52 NE10      30.05R
COTULLA        CLEAR     54  34  46 E10       30.04R
DEL RIO        CLEAR     46  34  62 S3        30.05R
MCALLEN        CLEAR     65  51  60 NE10      29.97R
HEBBRONVILLE   CLEAR     51  37  59 NE7       30.03R
$$

...OTHER TEXAS OBSERVATIONS...

CITY           SKY/WX    TMP DP  RH WIND       PRES   REMARKS
BROWNSVILLE    CLEAR     67  56  67 NE10      29.94R
HOUSTON        CLEAR     50  35  56 N8        30.06R
COL. STATION   CLEAR     47  32  56 N13       30.10R
AUSTIN         CLEAR     48  30  49 N20G30    30.10R
WACO           CLEAR     38  29  70 N7        30.15R
FORT WORTH     CLEAR     38  25  59 N12       30.14R WCI  30
WICHITA FALLS  PTCLDY    29  24  82 N10       30.19R WCI  20
LUBBOCK        CLEAR     27  19  72 NE3       30.12R
EL PASO        CLEAR     47   3  16 SW12      30.06S
$$

...MARINE OBSERVATIONS...

STATION/POSITION TIME  SKY/WX   TEMP    WIND        PRES    VSBY  WAVE   SWELL
                                AIR SEA DIR/SP/G                  HT/PER HT/PER
                 (UTC)          (F)     (DEG/KT/KT) (MB)    (MI)  (FT/S) (FT/S)
PORT ARANSAS     1100            59 68   10/ 21/ 24 1015.6R
BUOY 90 E PORT A 1050            64 69   40/ 27/ 31 1013.7R         7/ 6
BUOY 45 SE BAFFI 1050            68      50/ 19/ 23 1013.8R         8/ 7
BUOY 200 E PT IS 1050            73 74   10/ 10/ 14 1012.3R         4/ 6   3/ 6
BUOY 15 E GALVES 1050            59 65   10/ 19/ 25 1015.4R         4/ 4   2/ 7
$$




USA.gov is the U.S. government's official web portal to all federal, state and local government web resources and services.